Simultaneous Nadir Overpasses (SNOs) Predictions

Prediction of SNOs between GOES-16 and NOAA-21 Satellite Orbit:

Table of predicted SNOs for the next 14.0 days since TLE Epoch: 11/9/2024
Index Date Time (GOES-16) GOES-16 Lat,Lon NOAA-21 Lat,Lon Distance(km) Time Diff (sec)
1 11/09/2024 06:12:41 0.02, -75.20 -0.69, -72.08 355.86 80
2 11/10/2024 18:34:43 -0.01, -75.22 -0.51, -77.41 249.63 80
3 11/11/2024 18:18:42 -0.01, -75.23 0.48, -72.89 265.92 80
4 11/13/2024 06:40:35 0.01, -75.23 0.64, -78.19 336.97 80
5 11/14/2024 06:19:14 0.01, -75.24 -0.36, -73.68 178.85 80
6 11/15/2024 18:41:15 -0.01, -75.27 -0.85, -79.00 425.69 80
7 11/16/2024 18:25:13 -0.01, -75.28 0.17, -74.49 90.38 80
8 11/19/2024 06:25:43 0.01, -75.30 0.01, -75.26 5.08 80
9 11/21/2024 18:29:03 -0.00, -75.36 -0.14, -76.08 81.71 80
10 11/22/2024 18:13:01 0.00, -75.38 0.86, -71.56 435.69 80
